temp
2023/01/29 17:20:02 UKLL 121900Z 32002MPS CAVOK 01/M11 Q1027 NOSIG
2023/01/29 18:20:01 UKLL 121900Z 32002MPS CAVOK 01/M11 Q1027 NOSIG
2023/01/29 19:20:01 UKLL 121900Z 32002MPS CAVOK 01/M11 Q1027 NOSIG
2023/01/29 20:20:01 UKLL 121900Z 32002MPS CAVOK 01/M11 Q1027 NOSIG
2023/01/29 21:20:01 UKLL 121900Z 32002MPS CAVOK 01/M11 Q1027 NOSIG
2023/01/29 22:20:01 UKLL 121900Z 32002MPS CAVOK 01/M11 Q1027 NOSIG
2023/01/29 23:20:01 UKLL 121900Z 32002MPS CAVOK 01/M11 Q1027 NOSIG
2023/01/30 00:20:01 UKLL 121900Z 32002MPS CAVOK 01/M11 Q1027 NOSIG
2023/01/30 01:20:01 UKLL 121900Z 32002MPS CAVOK 01/M11 Q1027 NOSIG
2023/01/30 02:20:01 UKLL 121900Z 32002MPS CAVOK 01/M11 Q1027 NOSIG
2023/01/30 03:20:01
2023/01/30 04:20:01 UKLL 121900Z 32002MPS CAVOK 01/M11 Q1027 NOSIG
2023/01/30 05:20:01 UKLL 121900Z 32002MPS CAVOK 01/M11 Q1027 NOSIG
2023/01/30 06:20:01
2023/01/30 07:20:01 UKLL 121900Z 32002MPS CAVOK 01/M11 Q1027 NOSIG
2023/01/30 08:20:02 UKLL 121900Z 32002MPS CAVOK 01/M11 Q1027 NOSIG
2023/01/30 09:20:01 UKLL 121900Z 32002MPS CAVOK 01/M11 Q1027 NOSIG
2023/01/30 10:20:01 UKLL 121900Z 32002MPS CAVOK 01/M11 Q1027 NOSIG
2023/01/30 11:20:01 UKLL 121900Z 32002MPS CAVOK 01/M11 Q1027 NOSIG
2023/01/30 12:20:01 UKLL 121900Z 32002MPS CAVOK 01/M11 Q1027 NOSIG
2023/01/30 13:20:01 UKLL 121900Z 32002MPS CAVOK 01/M11 Q1027 NOSIG
2023/01/30 14:20:01 UKLL 121900Z 32002MPS CAVOK 01/M11 Q1027 NOSIG
2023/01/30 15:20:01 UKLL 121900Z 32002MPS CAVOK 01/M11 Q1027 NOSIG
2023/01/30 16:20:01 UKLL 121900Z 32002MPS CAVOK 01/M11 Q1027 NOSIG
2023/01/30 17:09:16 UKLL 121900Z 32002MPS CAVOK 01/M11 Q1027 NOSIG


*METAR
*Decoder
*In graph

Рекомендую хостинг от vultr.com
Машина не роскошь. Роскошь - средства на её передвижение.
2023-01-30_17-09-16 / 3.236.70.233 / 0.6205